Location: New Town
(33.2710°N, 90.7534°W)
Time: 12:36:21
(UTC+00:00)

Explorer 11/Cluster Stage 4 - Pass Details

Date: 18 May 2021
Orbit: 467 x 1257 km, 28.8° (Epoch: 14 June)

Event Time Altitude Azimuth Distance (km) Brightness Sun altitude
Rises 02:47:37 0° 266° (W) 4,030 10.9 -20.1°
Reaches altitude 10° 02:50:24 10° 263° (W) 3,134 10.2 -20.5°
Maximum altitude 02:58:20 63° 185° (S) 1,376 7.5 -21.7°
Enters shadow 03:01:50 36° 119° (ESE) 1,862 7.9 -22.3°
Drops below altitude 10° 03:06:22 10° 106° (ESE) 3,170 - -22.9°
Sets 03:09:12 0° 103° (ESE) 4,078 - -23.3°
